Location: Lac de la Montagne noire
(46.1952°N, 74.2701°W)
Time: 08:06:35
(UTC-04:00)

ISS - Pass Details

Date: 27 March 2019
Orbit: 408 x 410 km, 51.6° (Epoch: 25 April)

Event Time Altitude Azimuth Distance (km) Brightness Sun altitude
Rises 21:20:33 0° 283° (WNW) 2,335 1.4 -20.9°
Reaches altitude 10° 21:22:48 10° 294° (WNW) 1,474 0.2 -21.2°
Maximum altitude 21:25:47 30° 358° (N) 762 -2.2 -21.7°
Enters shadow 21:26:05 29° 10° (N) 773 -2.3 -21.7°
